F1ZUI-13 Weather Reports


time (UTC)temp
C
wind
direction
speed
KPH
gust
KPH
rain 1hr
cm
rain 24hr
cm
rain mn
cm
humidity
%
barometer
mb
20260504231121 8 270 6.4 0.0 0.00 0.00 0.00 1015.6
20260504230107 7 0.0 0.0 0.00 0.00 0.00 1015.7
20260504225053 7 270 3.2 0.0 0.00 0.00 0.00 1015.7
20260504224040 8 0.0 0.0 0.00 0.00 0.00 1015.6
20260504222914 8 0.0 0.0 0.00 0.00 0.00 1015.7
20260504221901 8 0.0 0.0 0.00 0.00 0.00 1015.9
20260504221007 8 0.0 0.0 0.00 0.00 0.00 1015.9
20260504220847 8 0.0 0.0 0.00 0.00 0.00 1015.9
20260504215833 8 0.0 0.0 0.00 0.00 0.00 1016.0
20260504214820 8 0.0 0.0 0.00 0.00 0.00 1016.0
20260504213806 8 0.0 0.0 0.00 0.00 0.00 1016.1
20260504212752 8 0.0 0.0 0.00 0.00 0.00 1016.2
20260504211739 8 0.0 0.0 0.00 0.00 0.00 1016.2
20260504210725 8 0.0 0.0 0.00 0.00 0.00 1016.2
20260504205711 8 225 3.2 0.0 0.00 0.00 0.00 1016.2
20260504204658 8 225 3.2 0.0 0.00 0.00 0.00 1016.2
20260504203644 8 225 8.0 0.0 0.00 0.00 0.00 1016.1
20260504202631 8 225 3.2 0.0 0.00 0.00 0.00 1016.1
20260504201617 8 225 3.2 0.0 0.00 0.00 0.00 1016.0
20260504200603 8 225 8.0 0.0 0.00 0.00 0.00 1015.8
20260504195550 8 225 3.2 0.0 0.00 0.00 0.00 1015.8
20260504194536 8 315 6.4 0.0 0.00 0.00 0.00 1015.7
20260504193522 8 270 8.0 0.0 0.00 0.00 0.00 1015.6
20260504192509 8 0 6.4 0.0 0.00 0.00 0.00 1015.4
20260504191455 8 270 9.7 0.0 0.00 0.00 0.00 1015.4
20260504190442 8 270 8.0 0.0 0.00 0.00 0.00 1015.4
20260504185428 8 315 4.8 0.0 0.00 0.00 0.00 1015.3
20260504184414 8 315 19.3 0.0 0.00 0.00 0.00 1015.3
20260504183401 8 315 8.0 0.0 0.00 0.00 0.00 1015.2
20260504182347 9 315 6.4 0.0 0.00 0.00 0.00 1015.2
20260504181334 9 315 4.8 0.0 0.00 0.00 0.00 1015.3
20260504180320 10 0 11.3 0.0 0.00 0.00 0.00 1015.2
20260504175306 10 315 22.5 0.0 0.00 0.00 0.00 1015.2
20260504174253 9 315 4.8 0.0 0.00 0.00 0.00 1015.3
20260504173239 10 315 14.5 0.0 0.00 0.00 0.00 1015.3
20260504172225 10 315 6.4 0.0 0.00 0.00 0.00 1015.4
20260504171212 10 315 4.8 0.0 0.00 0.00 0.00 1015.3
20260504170158 10 0.0 0.0 0.00 0.00 0.00 1015.3
20260504150928 11 0 3.2 0.0 0.00 0.00 0.00 1015.0
20260504140806 9 315 17.7 0.0 0.00 0.00 0.00 1015.3
20260504130645 10 315 9.7 0.0 0.00 0.00 0.00 1015.1
20260504110401 15 315 11.3 0.0 0.00 0.00 0.00 1015.0
20260504100239 12 0 8.0 0.0 0.00 0.00 0.00 1014.7
20260504090118 13 315 8.0 0.0 0.00 0.00 0.00 1014.5
20260504081010 12 270 16.1 0.0 0.00 0.00 0.00 1014.2
20260504050604 10 270 6.4 0.0 0.00 0.00 0.00 1013.7
20260504045551 10 270 9.7 0.0 0.00 0.00 0.00 1013.7
20260504044512 10 270 11.3 0.0 0.00 0.00 0.00 1013.6
20260504043458 10 270 12.9 0.0 0.00 0.00 0.00 1013.6
20260504042445 10 225 12.9 0.0 0.00 0.00 0.00 1013.6
20260504041431 10 270 20.9 0.0 0.00 0.00 0.00 1013.6
20260504040418 9 270 16.1 0.0 0.00 0.00 0.00 1013.7
20260504033713 10 270 14.5 0.0 0.00 0.00 0.00 1013.8
20260504032700 10 270 9.7 0.0 0.00 0.00 0.00 1013.8
20260504031646 10 270 12.9 0.0 0.00 0.00 0.00 1013.9
20260504030632 10 270 11.3 0.0 0.00 0.00 0.00 1013.9
20260504025619 10 270 16.1 0.0 0.00 0.00 0.00 1013.8
20260504024605 10 225 16.1 0.0 0.00 0.00 0.00 1013.8
20260504023552 10 225 20.9 0.0 0.00 0.00 0.00 1013.8
20260504022538 10 225 12.9 0.0 0.00 0.00 0.00 1013.7
20260504021524 11 270 9.7 0.0 0.00 0.00 0.00 1013.8
20260504020511 10 270 16.1 0.0 0.00 0.00 0.00 1013.8
20260504015457 10 270 17.7 0.0 0.00 0.00 0.00 1013.9
20260504014443 10 270 12.9 0.0 0.00 0.00 0.00 1013.9
20260504013430 10 270 16.1 0.0 0.00 0.00 0.00 1013.8
20260504012416 11 225 12.9 0.0 0.00 0.00 0.00 1013.9
20260504011403 11 270 27.4 0.0 0.00 0.00 0.00 1013.6
20260504010349 11 270 16.1 0.0 0.00 0.00 0.00 1013.8
20260504005335 11 225 17.7 0.0 0.00 0.00 0.00 1013.9
20260504004322 11 270 14.5 0.0 0.00 0.00 0.00 1013.9
20260504003308 11 225 11.3 0.0 0.00 0.00 0.00 1014.0
20260504002254 12 270 19.3 0.0 0.00 0.00 0.00 1013.9
20260504001241 12 225 25.7 0.0 0.00 0.00 0.00 1013.9
20260504000227 12 270 14.5 0.0 0.00 0.00 0.00 1013.8
20260503235214 12 225 12.9 0.0 0.00 0.00 0.00 1013.8
20260503234200 12 225 19.3 0.0 0.00 0.00 0.00 1013.9
20260503233146 12 225 14.5 0.0 0.00 0.00 0.00 1013.7
20260503232133 12 225 17.7 0.0 0.00 0.00 0.00 1013.9